Current Version              Previous Version:    01  02  03  04  05  06  07  08  09  10  11  12  13  14  15  16  17  18  19  20  21  22  23  24  25  26  27  28  29  30  
   31  32  33  34  35  36  37  38  39  40  41  42  43  44  45  46  47  48  49  50  51  52  53  54  55  56  57  58  59  60  

[Printable]
178
ASUS44 KFWD 221101
RWRTX
NORTH TEXAS HOURLY WEATHER ROUNDUP
NATIONAL WEATHER SERVICE FORT WORTH TX
600 AM CDT WED OCT 22 2014

NOTE: "FAIR" INDICATES FEW OR NO CLOUDS BELOW 12,000 FEET WITH NO
SIGNIFICANT WEATHER AND/OR OBSTRUCTIONS TO VISIBILITY.

TXZ118-119-221200-
DALLAS/FORT WORTH METROPLEX

CITY           SKY/WX    TMP DP  RH WIND       PRES   REMARKS
DFW AIRPORT    CLEAR     61  58  90 E3        30.09R
DALLAS LOVE    CLEAR     65  60  84 SE7       30.09R
FTW MEACHAM    CLEAR     65  58  78 E3        30.08R
DAL-EXECUTIVE  CLEAR     62  58  86 E3        30.09R
FTW-ALLIANCE   PTCLDY    55  54  96 CALM      30.08R
FTW-NAS-JRB    CLEAR     65  58  78 CALM      30.13R
ARLINGTON      CLEAR     57  53  86 CALM      30.09R FOG
GRAND PRAIRIE  CLEAR     61  58  91 CALM      30.10R
ADDISON        CLEAR     64  59  82 E7        30.10F
LANCASTER      CLEAR     57  54  91 CALM      30.10R FOG
$$

TXZ091>094-102>105-117-120-121-131>134-221200-
NORTH CENTRAL TEXAS

CITY           SKY/WX    TMP DP  RH WIND       PRES   REMARKS
SHRMAN/DENISON CLEAR     65  62  90 SE7       30.11R
GAINESVILLE    CLEAR     57  56  97 CALM      30.12R FOG
BRIDGEPORT     CLEAR     53  53 100 CALM      30.10S
DECATUR        CLEAR     59  56  89 E3        30.10R
DENTON         CLEAR     56  54  93 CALM      30.09R FOG
MCKINNEY       CLEAR     56  55  97 N3        30.10R
ROCKWALL       CLEAR     60  60  97 CALM      30.09R
TERRELL        CLEAR     59  56  89 CALM      30.10R
WAXAHACHIE     CLEAR     60  60 100 E3        30.11R FOG
CLEBURNE       CLEAR     61  59  94 CALM      30.10R
GRANBURY       PTCLDY    57  54  89 CALM      30.10R
$$

TXZ083>090-098>101-113>116-127>130-139>142-154-155-221200-
WESTERN NORTH TEXAS

CITY           SKY/WX    TMP DP  RH WIND       PRES   REMARKS
WICHITA FALLS  CLEAR     56  53  90 S8        30.08R
WF-KICKAPOO    CLEAR     57  53  87 CALM      30.10R
VERNON         CLEAR     57  48  72 CALM      30.09R
ABILENE        CLOUDY    65  49  56 S8        30.09R
ABILENE-DYESS  CLOUDY    64  50  60 SE7       30.08R
MINERAL WELLS  CLEAR     57  54  89 SE6       30.08R FOG
STEPHENVILLE   MOCLDY    59  55  84 CALM      30.12R
COMANCHE       CLOUDY    60  56  86 S3        30.09R
COLEMAN        CLOUDY    63  53  69 E5        30.09S
$$

TXZ143>147-156>162-174-175-221200-
CENTRAL TEXAS

CITY           SKY/WX    TMP DP  RH WIND       PRES   REMARKS
WACO           PTCLDY    59  56  89 CALM      30.07S
WACO-MCGREGOR  PTCLDY    59  52  77 CALM      30.09R
CORSICANA      CLEAR     62  60  93 CALM      30.10R FOG
MEXIA          PTCLDY    60  59  97 CALM      30.08R
HEARNE         PTCLDY    59  58  96 CALM      30.08R
TEMPLE         MOCLDY    61  54  77 NE3       30.06S
KILLEEN        MOCLDY    64  55  72 CALM      30.07R
KILLEEN-SKYLRK MOCLDY    59  52  77 CALM      30.06R
FORT HOOD      MOCLDY    64  58  80 CALM      30.08R
GATESVILLE     MOCLDY    57  54  88 CALM      30.10R
HAMILTON       CLOUDY    62  56  82 CALM      30.09S
LAMPASAS       MOCLDY    58  54  85 CALM      30.07S
$$

TXZ095>097-106>112-122>126-135>138-148>153-164>167-221200-
EAST TEXAS

CITY           SKY/WX    TMP DP  RH WIND       PRES   REMARKS
PARIS          CLOUDY    61  54  77 CALM      30.12R
SULPHUR SPRNGS   N/A     58  57  99 CALM      30.13R FOG
MOUNT PLEASANT CLEAR     59  59  99 CALM      30.12R
MINEOLA        CLEAR     55  55 100 CALM      30.11R FOG
TYLER          CLEAR     60  57  89 CALM      30.09R FOG
LONGVIEW       CLEAR     57  56  96 E6        30.09R FOG
MARSHALL       CLEAR     59  57  93 CALM      30.12R
ATHENS         CLEAR     57  55  94 CALM      30.09R FOG
PALESTINE      CLEAR     62  61  96 CALM      30.10R
JACKSONVILLE   CLEAR     63  61  94 CALM      30.11R FOG
HENDERSON        N/A     56  56 100 CALM      30.10S FOG
NACOGDOCHES    CLEAR     54  52  94 CALM      30.09R
LUFKIN         CLEAR     61  58  90 CALM      30.07R FOG
$$

SUPPLEMENTAL OBSERVATIONS (CENTRAL)

CITY           SKY/WX    TMP DP  RH WIND       PRES   REMARKS
$$

SUPPLEMENTAL OBSERVATIONS (WEST)

CITY           SKY/WX    TMP DP  RH WIND       PRES   REMARKS
$$

SUPPLEMENTAL OBSERVATIONS (EAST)

CITY           SKY/WX    TMP DP  RH WIND       PRES   REMARKS
$$

SUPPLEMENTAL OBSERVATIONS ARE A COLLECTION OF AUTOMATED INSTRUMENTS
THAT ARE MAINTAINED BY A VARIETY OF FEDERAL AND STATE AGENCIES.
CERTAIN ELEMENTS...SUCH AS HUMIDITY VALUES AND SUSTAINED WIND
SPEEDS...MAY BE APPROXIMATED.